This is the latest recevied weather packets stored in our database for station/object IU7URP-13. If no packets are shown the sender has not sent any weather packets the latest 10 day(s).
| Time | Temp. | Humidity | Pressure | Rain* | Wind** | Luminosity | Snow |
|---|---|---|---|---|---|---|---|
| 1778119113 | 15.56° C | 99% | 1019.1 hPa | - | - | - | - |
| 1778117912 | 15.56° C | 99% | 1019.1 hPa | - | - | - | - |
| 1778116711 | 15° C | 99% | 1019 hPa | - | - | - | - |
| 1778115509 | 15.56° C | 99% | 1019.1 hPa | - | - | - | - |
| 1778114308 | 15.56° C | 99% | 1019.2 hPa | - | - | - | - |
| 1778113107 | 15.56° C | 99% | 1019.3 hPa | - | - | - | - |
| 1778111905 | 16.11° C | 99% | 1019.3 hPa | - | - | - | - |
| 1778110704 | 15.56° C | 99% | 1018.9 hPa | - | - | - | - |
| 1778109503 | 15.56° C | 99% | 1019.1 hPa | - | - | - | - |
| 1778108301 | 15.56° C | 99% | 1019.2 hPa | - | - | - | - |
| 1778107100 | 15.56° C | 99% | 1019.1 hPa | - | - | - | - |
| 1778105899 | 15.56° C | 99% | 1019 hPa | - | - | - | - |
| 1778104697 | 15.56° C | 99% | 1019 hPa | - | - | - | - |
| 1778103496 | 15.56° C | 99% | 1019 hPa | - | - | - | - |
| 1778102295 | 15.56° C | 99% | 1018.9 hPa | - | - | - | - |
| 1778101093 | 15.56° C | 99% | 1019.1 hPa | - | - | - | - |
| 1778099892 | 15.56° C | 99% | 1019.2 hPa | - | - | - | - |
| 1778098691 | 15.56° C | 99% | 1019.2 hPa | - | - | - | - |
| 1778097489 | 15.56° C | 99% | 1019 hPa | - | - | - | - |
| 1778096288 | 16.11° C | 99% | 1019.1 hPa | - | - | - | - |
| 1778095086 | 16.11° C | 99% | 1019.4 hPa | - | - | - | - |
| 1778093885 | 16.11° C | 99% | 1019 hPa | - | - | - | - |
| 1778092684 | 16.11° C | 99% | 1019 hPa | - | - | - | - |
| 1778091482 | 16.67° C | 99% | 1018.6 hPa | - | - | - | - |
| 1778090281 | 16.67° C | 99% | 1018.7 hPa | - | - | - | - |
* Rain since midnight (hover to see other rain measurements)
** Current wind speed in m/s (hover to see current wind gust speed)